Über Flock 4g-2
Group: 3 satellites
Beschreibung wird geladen...
Live-Position
3D-Globus wird geladen...
Nächste Überflüge
Höhenverlauf
Altitude vs Time
uPlot chart will show altitude changes over time
Zweizeiliger Elementsatz
1 62661U 25009BE 25299.21402390 .00013069 00000-0 54666-3 0 9994
2 62661 97.4221 17.9092 0005833 77.4718 282.7172 15.23696792100829
Epoch: 26. Okt. 2025 •
Age: 9 hours
Aktueller Status
Höhe 498.4 km
Geschwindigkeit 7.62 km/s
Subsatellitenpunkt -6.71°S,
125.49°E
Startdatum 14. Jan. 2025
Alter 0.7 years
Typ other
Technische Details
Klassifizierung Payload
Masse 5.70 kg
Trockenmasse 5.70 kg
Gesamtmasse 5.70 kg
Länge 0.30 m
Durchmesser 0.10 m
Spannweite 0.30 m
Form Box+2 pan
Hersteller PLAN
Bus-Typ Cubesat 3U
Phasenstatus In Orbit
Besitzer/Staat PLAN/US
Große Konstellationen
Loading constellations...